sat.trackr.live / text

‹ back to catalog

STARLINK-5042

NORAD 53899 · 2022-119P

PAYLOAD ACTIVE UNKNOWN

§ Identity

Operator
Country
US
Launch date
2022-09-24
Launch site
AFETR
Launch vehicle
Mass (kg)
RCS (m²)

Purposes: comms

External: N2YO · Heavens-Above · Gunter

§ Orbital elements

Epoch: 2026-07-06T23:04:46.031232Z

Period
87.66 min
Inclination
53.1997°
Eccentricity
0.0012204
Mean motion
16.42666189 rev/d
Perigee alt
150.7 km
Apogee alt
166.7 km
Semi-major
6,536.9 km
B*
3.5325e-4
RAAN
107.6983°
Arg perigee
246.1434°
Mean anomaly
113.8337°
Rev number
21,026

§ Raw data

STARLINK-50421 53899U 22119P   26187.96164388  .08719353  12340-4  35325-3 0  99992 53899  53.1997 107.6983 0012204 246.1434 113.8337 16.42666189210263

JSON: /api/v1/satellites/53899 · /tle

For live sub-satellite position, see the globe view (requires WebGL).

§ Visibility from observer

Set your observer location to see the next 7 days of passes ≥ 10°. The values pass through the URL so the page stays shareable.

No JS? Fill the form by hand. The geolocation button needs JavaScript.